Location: Peebles
(55.6412°N, 3.1714°W)
Time: 08:42:46
(UTC+01:00)

NOSS 3-3 (A) - Pass Details

Date: 02 February 2022
Orbit: 789 x 1423 km, 63.4° (Epoch: 23 April)

Event Time Altitude Azimuth Distance (km) Brightness Sun altitude
Rises 07:04:15 0° 226° (SW) 3,412 6.6 -8.6°
Reaches altitude 10° 07:06:34 10° 226° (SW) 2,536 5.9 -8.3°
Maximum altitude 07:12:28 85° 140° (SE) 983 4.1 -7.5°
Drops below altitude 10° 07:19:24 10° 52° (NE) 2,962 7.0 -6.6°
Sets 07:22:18 0° 52° (NE) 4,022 7.7 -6.2°
